Stations météo

réclame
Mon MeteoGroup
Baumholder Airfield (US), Allemagne (10619): Température de l'air & dewpoint: 09.09.2019 12:00:00 - 15.09.2019 12:00:00 (CEST)Baumholder Airfield (US), Allemagne (10619): Vitesse du vent: 09.09.2019 12:00:00 - 15.09.2019 12:00:00 (CEST)Baumholder Airfield (US), Allemagne (10619): Direction du vent: 09.09.2019 12:00:00 - 15.09.2019 12:00:00 (CEST)Baumholder Airfield (US), Allemagne (10619): reduced air pressure: 09.09.2019 12:00:00 - 15.09.2019 12:00:00 (CEST)Baumholder Airfield (US), Allemagne (10619): visibility: 09.09.2019 12:00:00 - 15.09.2019 12:00:00 (CEST)
Date & Time tt [°C] td [°C] ff [km/h] ff [knt] dd ppp [hPa] vv [km]
15.09.2019 12:00:00 20,0 11,3 0 0 N 1014,1 10
15.09.2019 11:00:00 18,8 11,8 0 0 N 1014,1 10
15.09.2019 10:00:00 17,8 11,5 5 3 W 1014,1 10
15.09.2019 09:00:00 16,3 10,1 5 3 W 1014,7 10
15.09.2019 08:00:00 14,3 7,5 5 3 WNW 1014,5 10
15.09.2019 07:00:00 13,5 8,7 0 0 N 1014,3 10
15.09.2019 06:00:00 13,2 7,4 0 0 N 1014,3 10
15.09.2019 05:00:00 12,9 6,9 0 0 N 1014,5 10
15.09.2019 04:00:00 13,4 7,1 0 0 N 1015,2 10
15.09.2019 03:00:00 14,0 8,1 9 5 E 1015,5 10
15.09.2019 02:00:00 15,0 8,6 8 4 E 1015,8 10
15.09.2019 01:00:00 14,2 9,0 0 0 N 1016,7 10
15.09.2019 00:00:00 14,8 9,2 8 4 E 1016,7 10
14.09.2019 23:00:00 15,1 9,3 8 4 E 1017,6 10
14.09.2019 22:00:00 15,4 9,5 5 3 ENE 1018,4 10
14.09.2019 21:00:00 15,6 9,7 8 4 E 1018,4 10
14.09.2019 20:00:00 16,4 9,9 5 3 E 1018,1 10
14.09.2019 19:00:00 18,6 9,6 5 3 ENE 1017,7 10
14.09.2019 18:00:00 19,8 10,2 8 4 ENE 1018,1 10
14.09.2019 17:00:00 20,1 10,3 8 4 ENE 1018,4 10
14.09.2019 16:00:00 20,1 10,8 8 4 NE 1018,7 10
14.09.2019 15:00:00 19,7 10,3 11 6 ENE 1019,2 10
14.09.2019 14:00:00 19,2 10,7 0 0 N 1020,1 10
14.09.2019 13:00:00 18,2 11,3 5 3 ENE 1020,4 10
14.09.2019 12:00:00 17,3 12,1 8 4 E 1021,1 10
14.09.2019 11:00:00 15,7 11,8 5 3 ENE 1021,3 10
14.09.2019 10:00:00 13,6 11,4 8 4 ENE 1021,3 10
14.09.2019 09:00:00 12,4 10,7 9 5 E 1021,8 10
14.09.2019 08:00:00 12,0 10,5 9 5 ENE 1021,8 10
14.09.2019 07:00:00 12,4 10,4 9 5 NE 1021,0 10
14.09.2019 06:00:00 12,5 10,8 0 0 N 1020,8 10
14.09.2019 05:00:00 12,2 11,2 8 4 ENE 1021,1 10
14.09.2019 04:00:00 12,7 11,8 0 0 N 1021,4 10
14.09.2019 03:00:00 13,6 11,9 8 4 ENE 1021,8 10
14.09.2019 02:00:00 13,5 12,3 8 4 NE 1021,8 10
14.09.2019 01:00:00 13,9 12,6 0 0 N 1022,1 10
14.09.2019 00:00:00 14,0 12,4 5 3 NNE 1022,3 10
13.09.2019 23:00:00 14,9 12,0 5 3 N 1022,3 10
13.09.2019 22:00:00 15,3 11,7 0 0 N 1022,0 10
13.09.2019 21:00:00 15,6 11,9 0 0 N 1022,3 10
13.09.2019 20:00:00 16,0 12,0 0 0 N 1021,6 10
13.09.2019 19:00:00 17,5 13,6 5 3 NE 1021,4 10
13.09.2019 18:00:00 18,9 12,6 0 0 N 1021,1 10
13.09.2019 17:00:00 19,3 12,8 0 0 N 1020,9 10
13.09.2019 16:00:00 18,7 13,6 0 0 N 1021,2 10
13.09.2019 15:00:00 18,6 13,8 0 0 N 1021,2 10
13.09.2019 14:00:00 18,6 13,5 5 3 NW 1021,6 10
13.09.2019 13:00:00 17,4 13,3 0 0 N 1021,8 10
13.09.2019 12:00:00 15,9 14,1 5 3 NNW 1022,1 10
13.09.2019 11:00:00 15,7 13,8 5 3 WSW 1021,8 10
13.09.2019 10:00:00 15,5 13,3 8 4 W 1021,1 10
13.09.2019 09:00:00 14,7 13,5 8 4 WSW 1020,8 10
13.09.2019 08:00:00 14,1 13,2 8 4 SW 1020,8 10
13.09.2019 07:00:00 13,9 13,1 9 5 WSW 1020,8 10
13.09.2019 06:00:00 13,8 12,9 9 5 WSW 1019,6 10
13.09.2019 05:00:00 14,1 13,0 11 6 WSW 1019,7 10
13.09.2019 04:00:00 14,7 12,8 11 6 WSW 1019,6 10
13.09.2019 03:00:00 14,5 12,4 5 3 WSW 1020,1 10
13.09.2019 02:00:00 15,3 12,3 8 4 W 1020,3 10
13.09.2019 01:00:00 15,5 12,5 9 5 W 1020,1 10
13.09.2019 00:00:00 15,7 12,3 9 5 W 1020,1 10
12.09.2019 23:00:00 16,1 12,5 11 6 W 1020,6 10
12.09.2019 22:00:00 16,5 12,4 11 6 W 1020,6 10
12.09.2019 21:00:00 17,2 12,2 11 6 W 1020,6 10
12.09.2019 20:00:00 17,4 12,1 13 7 WSW 1019,9 10
12.09.2019 19:00:00 18,9 12,0 15 8 WSW 1019,4 10
12.09.2019 18:00:00 19,3 12,6 16 9 WSW 1019,4 10
12.09.2019 17:00:00 18,5 13,8 13 7 WSW 1019,7 10
12.09.2019 16:00:00 18,0 14,5 16 9 WSW 1020,1 10
12.09.2019 15:00:00 16,6 15,4 11 6 SW 1020,1 10
12.09.2019 14:00:00 15,9 14,8 11 6 WSW 1020,3 2,8
12.09.2019 13:00:00 15,6 14,1 13 7 WSW 1020,3 10
12.09.2019 12:00:00 15,1 14,0 11 6 WSW 1019,9 10
12.09.2019 11:00:00 14,2 13,5 11 6 WSW 1019,6 10
12.09.2019 10:00:00 13,7 13,2 11 6 WSW 1018,9 4,0
12.09.2019 09:00:00 13,2 12,8 8 4 SW 1018,4 1,2
12.09.2019 08:00:00 12,9 12,5 8 4 WSW 1018,1 2,6
12.09.2019 07:00:00 12,8 12,0 11 6 SW 1017,4 10
12.09.2019 06:00:00 13,1 11,8 11 6 WSW 1016,9 10
12.09.2019 05:00:00 13,7 9,2 15 8 WSW 1016,6 10
12.09.2019 04:00:00 14,5 8,7 11 6 WSW 1016,4 10
12.09.2019 03:00:00 14,5 7,9 9 5 WSW 1016,0 10
12.09.2019 02:00:00 14,8 7,5 9 5 SW 1016,0 10
12.09.2019 01:00:00 14,9 7,5 15 8 SW 1015,7 10
12.09.2019 00:00:00 15,1 7,5 11 6 SW 1015,7 10
11.09.2019 23:00:00 15,0 7,4 11 6 WSW 1015,3 10
11.09.2019 22:00:00 15,2 7,5 11 6 WSW 1015,2 10
11.09.2019 21:00:00 15,2 7,4 11 6 SW 1015,1 10
11.09.2019 20:00:00 15,5 7,0 11 6 WSW 1014,4 10
11.09.2019 19:00:00 15,8 7,0 11 6 WSW 1014,4 10
11.09.2019 18:00:00 16,1 6,9 15 8 W 1014,0 10
11.09.2019 17:00:00 16,5 6,9 13 7 W 1013,7 10
11.09.2019 16:00:00 16,3 6,7 15 8 WSW 1013,7 10
11.09.2019 15:00:00 16,5 6,2 18 10 W 1013,7 10
11.09.2019 14:00:00 17,3 5,8 16 9 W 1013,4 10
11.09.2019 13:00:00 17,0 5,6 18 10 WSW 1013,4 10
11.09.2019 12:00:00 16,5 5,5 15 8 SW 1013,2 10
11.09.2019 11:00:00 16,1 6,2 8 4 W 1013,4 10
11.09.2019 10:00:00 14,5 6,2 9 5 SW 1013,0 10
11.09.2019 09:00:00 13,6 5,9 9 5 WSW 1012,7 10
11.09.2019 08:00:00 11,4 5,2 8 4 SW 1012,2 10
11.09.2019 07:00:00 11,4 4,4 5 3 SSW 1011,7 10
11.09.2019 06:00:00 11,8 4,5 5 3 SSW 1011,0 10
11.09.2019 05:00:00 11,4 3,8 0 0 N 1011,0 10
11.09.2019 04:00:00 11,1 4,2 0 0 N 1010,7 10
11.09.2019 03:00:00 11,4 4,2 0 0 N 1010,7 10
11.09.2019 02:00:00 11,3 3,9 0 0 N 1010,8 10
11.09.2019 01:00:00 11,8 4,1 0 0 N 1010,8 10
11.09.2019 00:00:00 12,2 4,9 0 0 N 1010,8 10
10.09.2019 23:00:00 11,6 4,9 0 0 N 1010,5 10
10.09.2019 22:00:00 13,4 2,5 0 0 N 1010,2 10
10.09.2019 21:00:00 13,6 2,7 0 0 N 1009,5 10
10.09.2019 20:00:00 14,7 3,8 0 0 N 1009,0 10
10.09.2019 19:00:00 16,1 5,2 0 0 N 1008,5 10
10.09.2019 18:00:00 16,4 4,4 8 4 WNW 1008,1 10
10.09.2019 17:00:00 16,6 4,8 0 0 N 1007,6 10
10.09.2019 16:00:00 16,2 4,4 5 3 WNW 1007,5 10
10.09.2019 15:00:00 16,4 5,3 0 0 N 1007,8 10
10.09.2019 14:00:00 16,0 6,0 0 0 N 1007,5 10
10.09.2019 13:00:00 14,0 5,5 0 0 N 1007,6 10
10.09.2019 12:00:00 14,1 6,0 0 0 N 1007,6 10
10.09.2019 11:00:00 13,2 5,1 0 0 N 1007,0 10
10.09.2019 10:00:00 13,0 5,6 5 3 WNW 1007,0 10
10.09.2019 09:00:00 12,5 5,5 0 0 N 1006,3 10
10.09.2019 08:00:00 9,7 4,8 0 0 N 1005,8 10
10.09.2019 07:00:00 9,2 4,5 0 0 N 1005,5 10
10.09.2019 06:00:00 9,0 4,7 0 0 N 1005,1 10
10.09.2019 05:00:00 10,0 4,5 0 0 N 1004,9 10
10.09.2019 04:00:00 10,2 4,7 0 0 N 1004,9 10
10.09.2019 03:00:00 10,4 5,1 5 3 S 1004,9 10
10.09.2019 02:00:00 10,0 4,7 5 3 S 1005,1 10
10.09.2019 01:00:00 10,9 4,6 5 3 SSW 1004,9 10
10.09.2019 00:00:00 10,6 4,5 0 0 N 1004,9 10
09.09.2019 23:00:00 11,1 4,5 0 0 N 1004,8 10
09.09.2019 22:00:00 10,8 3,9 5 3 S 1005,3 10
09.09.2019 21:00:00 11,1 4,1 5 3 SSW 1005,0 10
09.09.2019 20:00:00 11,2 5,3 0 0 N 1004,9 10
09.09.2019 19:00:00 12,9 5,5 0 0 N 1004,3 10
09.09.2019 18:00:00 13,3 4,9 8 4 WSW 1004,3 10
09.09.2019 17:00:00 13,3 5,5 0 0 N 1004,3 10
09.09.2019 16:00:00 13,8 4,6 0 0 N 1004,5 10
09.09.2019 15:00:00 13,6 4,3 0 0 N 1004,8 10
09.09.2019 14:00:00 12,8 5,0 0 0 N 1005,1 10
09.09.2019 13:00:00 12,7 5,0 8 4 WNW 1005,1 10
09.09.2019 12:00:00 12,8 6,7 8 4 NW 1005,5 10

tt = Température de l'air
td = dewpoint
ff = Vitesse du vent
dd = Direction du vent
ppp = reduced air pressure
vv = visibility

stations d'obs. à proximité